Weather History for KFLL - October, 2011

Change the Weather History Date:

Friday, October 21, 2011

  Actual Average Record
Temperature  
Mean Temperature 69 °F 80 °F  
Max Temperature 76 °F 85 °F 91 °F (1980)
Min Temperature 61 °F 75 °F 48 °F (1913)
Degree Days  
Heating Degree Days 0 0  
Month to date heating degree days 0 0  
Since 1 July heating degree days 0 0  
Cooling Degree Days 4 15  
Month to date cooling degree days 303 343  
Year to date cooling degree days 4156 4055  
Growing Degree Days 18 (Base 50)    
Moisture  
Dew Point 52 °F    
Average Humidity 55    
Maximum Humidity 73    
Minimum Humidity 36    
Precipitation  
Precipitation 0.00 in 0.16 in 1.84 in (1959)
Month to date precipitation 7.48 5.14  
Year to date precipitation 30.83 54.80  
Snow  
Snow 0.00 in - - ()
Month to date snowfall 0.0  
Since 1 July snowfall 0.0  
Since 1 September snowfall 0.0  
Snow Depth 0.00 in    
Sea Level Pressure  
Sea Level Pressure 30.06 in    
Wind  
Wind Speed 9 mph (North)    
Max Wind Speed 17 mph    
Max Gust Speed 22 mph    
Visibility 10 miles    
Events      
T = Trace of Precipitation, MM = Missing Value Source: NWS Daily Summary

Daily Weather History Graph

Daily Weather History Graph

Search for Another Location

Airport or City:

Trip Planner

Search our weather history database for the weather conditions in past years. The results will help you decide how hot, cold, wet, or windy it might be!

Date:

Astronomy

Oct. 21, 2011 Rise Set
Actual Time 7:22 AM EDT 6:47 PM EDT
Civil Twilight 6:59 AM EDT 7:10 PM EDT
Nautical Twilight 6:32 AM EDT 7:37 PM EDT
Astronomical Twilight 6:05 AM EDT 8:04 PM EDT
Moon 1:45 AM EDT (10/21) 3:00 PM EDT (10/21)
Length of Visible Light 12h 11m
Length of Day
11h 24m
Waning Crescent, 34% of the Moon is Illuminated
Oct 21
Waning Crescent
Oct 26
New
Nov 2
First Quarter
Nov 10
Full
Nov 18
Last Quarter

Hourly Weather History & Observations

Time (EDT) Temp. Dew Point Humidity Pressure Visibility Wind Dir Wind Speed Gust Speed Precip Events Conditions
12:53 AM 66.0 °F 54.0 °F 65% 30.07 in 10.0 mi NNW 6.9 mph - N/A   Scattered Clouds
1:53 AM 64.9 °F 55.0 °F 70% 30.07 in 10.0 mi NNW 4.6 mph - N/A   Mostly Cloudy
2:53 AM 64.9 °F 55.9 °F 73% 30.06 in 10.0 mi North 4.6 mph - N/A   Mostly Cloudy
3:53 AM 64.9 °F 53.1 °F 65% 30.06 in 10.0 mi North 8.1 mph - N/A   Mostly Cloudy
4:53 AM 63.0 °F 53.1 °F 70% 30.06 in 10.0 mi NNW 5.8 mph - N/A   Partly Cloudy
5:53 AM 63.0 °F 52.0 °F 67% 30.07 in 10.0 mi NNW 8.1 mph - N/A   Scattered Clouds
6:53 AM 62.1 °F 52.0 °F 70% 30.09 in 10.0 mi Calm Calm - N/A   Partly Cloudy
7:53 AM 62.1 °F 52.0 °F 70% 30.10 in 10.0 mi North 9.2 mph - N/A   Scattered Clouds
8:53 AM 66.0 °F 52.0 °F 60% 30.11 in 10.0 mi North 8.1 mph - N/A   Scattered Clouds
9:53 AM 69.1 °F 51.1 °F 53% 30.12 in 10.0 mi North 11.5 mph - N/A   Clear
10:53 AM 71.1 °F 51.1 °F 49% 30.13 in 10.0 mi North 11.5 mph - N/A   Partly Cloudy
11:53 AM 73.0 °F 51.1 °F 46% 30.11 in 10.0 mi North 12.7 mph - N/A   Partly Cloudy
12:53 PM 73.9 °F 51.1 °F 45% 30.08 in 10.0 mi North 13.8 mph 17.3 mph N/A   Clear
1:53 PM 75.0 °F 48.9 °F 40% 30.05 in 10.0 mi NNW 10.4 mph 18.4 mph N/A   Partly Cloudy
2:53 PM 75.9 °F 46.9 °F 36% 30.03 in 10.0 mi NNW 11.5 mph - N/A   Clear
3:53 PM 75.9 °F 50.0 °F 40% 30.01 in 10.0 mi North 9.2 mph 18.4 mph N/A   Partly Cloudy
4:53 PM 73.9 °F 54.0 °F 50% 30.01 in 10.0 mi ENE 10.4 mph - N/A   Partly Cloudy
5:53 PM 73.0 °F 53.1 °F 49% 30.02 in 10.0 mi NE 12.7 mph - N/A   Partly Cloudy
6:53 PM 71.1 °F 52.0 °F 51% 30.03 in 10.0 mi NNE 10.4 mph - N/A   Partly Cloudy
7:53 PM 69.1 °F 51.1 °F 53% 30.03 in 10.0 mi North 6.9 mph - N/A   Partly Cloudy
8:53 PM 66.9 °F 50.0 °F 54% 30.04 in 10.0 mi NNW 6.9 mph - N/A   Clear
9:53 PM 66.9 °F 51.1 °F 57% 30.04 in 10.0 mi NW 5.8 mph - N/A   Clear
10:53 PM 66.0 °F 51.1 °F 59% 30.04 in 10.0 mi NNW 9.2 mph - N/A   Clear
11:53 PM 64.9 °F 52.0 °F 63% 30.03 in 10.0 mi NNW 8.1 mph - N/A   Partly Cloudy